Location: Most
(50.5133°N, 13.6207°E)
Time: 02:08:45
(UTC+02:00)

Nauka - Pass Details

Date: 18 September 2021
Orbit: 418 x 423 km, 51.6° (Epoch: 18 October)

Event Time Altitude Azimuth Distance (km) Brightness Sun altitude
Rises 20:44:05 0° 229° (SW) 2,355 ? -15.0°
Reaches altitude 10° 20:46:14 10° 221° (SW) 1,495 ? -15.3°
Maximum altitude 20:49:24 39° 151° (SSE) 643 ? -15.8°
Enters shadow 20:49:46 38° 133° (SE) 663 ? -15.9°
